Location: Campillo
(40.8621°N, 4.2488°W)
Time: 13:19:51
(UTC+00:00)

Cosmos 2084 - Pass Details

Date: 11 May 2021
Orbit: 542 x 639 km, 62.8° (Epoch: 14 June)

Event Time Altitude Azimuth Distance (km) Brightness Sun altitude
Rises 19:58:03 0° 189° (S) 2,691 6.6 -6.5°
Reaches altitude 10° 20:00:24 10° 179° (S) 1,811 5.7 -6.9°
Maximum altitude 20:03:59 30° 117° (ESE) 997 4.1 -7.5°
Drops below altitude 10° 20:07:40 10° 55° (NE) 1,859 5.8 -8.1°
Sets 20:10:06 0° 45° (NE) 2,776 6.8 -8.5°
